Regional Weather Roundup
Issued by NWS

Home | Current Version | Previous Version | Graphics & Text | Print | Product List | Glossary On
Versions: 1 2 3 4 5 6 7 8 9 10 11 12 13 14 15 16 17 18 19 20 21 22 23 24 25 26 27 28 29 30 31 32 33 34 35 36 37 38 39 40 41 42 43 44 45 46 47 48 49 50
000
ASUS44 KMEG 300000
RWRTN
TENNESSEE HOURLY STATE WEATHER ROUNDUP
NATIONAL WEATHER SERVICE MEMPHIS TN
700 PM CDT FRI AUG 29 2014

TNZ002-004-019-021-049-052-054-088>092-300100-
WEST TENNESSEE

CITY           SKY/WX    TMP DP  RH WIND       PRES   REMARKS
MEMPHIS INTL   PTCLDY    88  66  48 S9        29.93R HX  90
NWS MEMPHIS      N/A     88 N/A N/A MISG        N/A
JACKSON        CLEAR     84  67  56 SE5       29.95S
DYERSBURG      CLEAR     84  64  51 SE5       29.93S
UNION CITY     CLEAR     82  70  65 SE5       29.93R
PARIS          CLEAR     82  64  54 S6        29.96S
SAVANNAH       CLEAR     82  70  65 SE3       29.97F
$$

TNZ008-025-027-028-033-062-065-066-300100-
NORTH MIDDLE TENNESSEE

CITY           SKY/WX    TMP DP  RH WIND       PRES   REMARKS
NASHVILLE      PTCLDY    87  60  40 S9        30.00R
CLARKSVILLE    CLEAR     83  64  52 S7        29.97S
COOKEVILLE     CLEAR     81  72  74 CALM      30.05R
CROSSVILLE     PTCLDY    77  62  59 CALM      30.10S
$$

TNZ061-075-076-078-094-096-097-300100-
SOUTH MIDDLE TENNESSEE

CITY           SKY/WX    TMP DP  RH WIND       PRES   REMARKS
WINCHESTER     CLEAR     82  68  61 CALM      30.04S
SHELBYVILLE    CLEAR     82  68  61 SE5       30.03S
$$

TNZ017-018-042-046-047-300100-
NORTHEAST TENNESSEE

CITY           SKY/WX    TMP DP  RH WIND       PRES   REMARKS
TRI CITIES     MOCLDY    75  69  81 CALM      30.10R
ELIZABETHTON   PTCLDY    79  66  65 E3        30.11R
$$

TNZ012-013-036-069-073-074-300100-
CENTRAL EAST TENNESSEE

CITY           SKY/WX    TMP DP  RH WIND       PRES   REMARKS
KNOXVILLE      PTCLDY    84  63  49 SW6       30.03S
OAK RIDGE      CLEAR     86  65  49 CALM      30.06R
GATLINBURG     CLEAR     84  68  58 CALM      30.04R
$$

TNZ083-085-099-300100-
SOUTHEAST TENNESSEE

CITY           SKY/WX    TMP DP  RH WIND       PRES   REMARKS
CHATTANOOGA    MOCLDY    89  56  32 SW3       30.02S
$$

SKY/WX REPORTED AS FAIR MEANS FEW OR NO CLOUDS BELOW
12 THOUSAND FEET.




USA.gov is the U.S. government's official web portal to all federal, state and local government web resources and services.